Flag for Croatia Weather past 2 weeks in Dubrovnik, Croatia

Now
86 °F

Passing clouds.


Feels Like: 85 °F
Forecast: 77 / 85 °F
Wind: 16 mph from Northeast

Location: Dubrovnik / Cilipi

Current Time: Aug 3, 2015 at 9:48:05 AM

Latest Report: Aug 3, 2015 at 9:30 AM


Visibility: N/A

Pressure: 29.95 "Hg

Humidity: 38%

Dew point: 57 °F

Location of DubrovnikLocation

Historic Weather in Dubrovnik — Graph

°F

Dubrovnik temperature yesterday

Maximum temperature yesterday: 88 °F (at 12:30 PM)
Minimum temperature yesterday: 72 °F (at 5:00 AM)
Average temperature yesterday: 82 °F

Past Weeks' High & Low Weather Summary

 TemperatureHumidityPressure
High95 °F (Jul 21, 2:30 PM)94% (Jul 27, 12:30 AM)30.04 "Hg (Jul 27, 12:30 AM)
Low72 °F (Jul 20, 4:30 AM)23% (Jul 23, 5:00 PM)29.74 "Hg (Jul 27, 6:00 PM)
Average84 °F57%29.86 "Hg
* Reported Jul 19 9:00 AM — Aug 3 9:00 AM, Dubrovnik, Weather by CustomWeather, © 2015

Note: Actual official high and low records may vary slightly from our data, if they occured in-between our weather recording intervals... More about our weather records

Advertising

Dubrovnik weather history for previous 24 hours

 ConditionsComfort  
Time TempWeatherWind HumidityBarometerVisibility
9:00 AM
Mon, Aug 3
84 °FPassing clouds.21 mph40%29.98 "HgN/A
8:30 AM84 °FPassing clouds.18 mph40%29.98 "HgN/A
8:00 AM84 °FPassing clouds.16 mph40%29.95 "HgN/A
7:30 AM82 °FPassing clouds.24 mph40%29.95 "HgN/A
7:00 AM82 °FPassing clouds.32 mph40%29.95 "HgN/A
6:00 AM82 °FPassing clouds.25 mph42%29.95 "HgN/A
5:00 AM84 °FPassing clouds.26 mph43%29.95 "HgN/A
4:30 AM84 °FPassing clouds.22 mph45%29.95 "HgN/A
4:00 AM82 °FPassing clouds.16 mph48%29.95 "HgN/A
3:30 AM84 °FPassing clouds.8 mph37%29.95 "HgN/A
3:00 AM84 °FPassing clouds.3 mph35%29.95 "HgN/A
2:30 AM84 °FClear.5 mph37%29.95 "Hg10 mi
2:00 AM84 °FPassing clouds.7 mph37%29.98 "HgN/A
1:30 AM82 °FPassing clouds.7 mph42%29.98 "HgN/A
1:00 AM79 °FClear.2 mph65%29.98 "Hg10 mi
12:30 AM84 °FClear.7 mph51%29.98 "Hg10 mi
12:00 AM79 °FClear.2 mph74%29.98 "Hg10 mi
11:30 PM
Sun, Aug 2
79 °FClear.8 mph84%29.98 "Hg10 mi
11:00 PM86 °FPassing clouds.6 mph46%29.98 "HgN/A
10:30 PM79 °FPassing clouds.7 mph84%30.01 "HgN/A
10:00 PM79 °FPassing clouds.7 mph84%30.01 "HgN/A
9:30 PM81 °FPassing clouds.3 mph74%30.01 "HgN/A
9:00 PM81 °FPassing clouds.3 mph79%30.01 "HgN/A
8:30 PM81 °FPassing clouds.8 mph79%29.98 "HgN/A
8:00 PM82 °FPassing clouds.5 mph70%29.98 "HgN/A
7:30 PM84 °FPassing clouds.6 mph66%30.01 "HgN/A
7:00 PM88 °FPassing clouds.5 mph52%29.98 "HgN/A
6:30 PM88 °FPassing clouds.3 mph49%30.01 "HgN/A
6:00 PM86 °FPassing clouds.7 mph52%30.01 "HgN/A
5:30 PM88 °FSunny.2 mph49%30.01 "Hg10 mi
5:00 PM84 °FPassing clouds.6 mph62%30.01 "HgN/A
4:30 PM84 °FSunny.8 mph66%30.04 "Hg10 mi
4:00 PM86 °FPassing clouds.9 mph62%30.04 "HgN/A
3:30 PM88 °FPassing clouds.13 mph55%30.04 "HgN/A
3:00 PM88 °FPassing clouds.8 mph59%30.04 "HgN/A
2:30 PM88 °FSunny.6 mph55%30.04 "Hg10 mi
2:00 PM88 °FSunny.6 mph52%30.04 "Hg10 mi
1:30 PM86 °FPassing clouds.10 mph66%30.04 "HgN/A
1:00 PM88 °FPassing clouds.9 mph49%30.04 "HgN/A
12:30 PM88 °FPassing clouds.8 mph59%30.04 "HgN/A
12:00 PM86 °FPassing clouds.8 mph62%30.04 "HgN/A
11:30 AM86 °FPassing clouds.8 mph59%30.04 "HgN/A
11:00 AM86 °FPassing clouds.8 mph59%30.04 "HgN/A
10:30 AM86 °FPassing clouds.8 mph62%30.04 "HgN/A
10:00 AM84 °FPassing clouds.9 mph62%30.04 "HgN/A
9:30 AM86 °FPassing clouds.7 mph55%30.01 "HgN/A
9:00 AM86 °FSunny.5 mph46%30.01 "Hg10 mi
Weather by CustomWeather, © 2015

See weather overviewHow to use our weather pages